Weather History for Copper Harbor, MI

Change the Weather History Date:

Sunday, January 13, 2013

  Actual Average Record
Temperature  
Mean Temperature 18 °F -  
Max Temperature 21 °F 22 °F 37 °F (2006)
Min Temperature 16 °F 12 °F 1 °F (2005)
Degree Days  
Heating Degree Days 46    
Moisture  
Dew Point 15 °F    
Average Humidity 84    
Maximum Humidity 89    
Minimum Humidity 78    
Precipitation  
Precipitation 0.10 in - - ()
Sea Level Pressure  
Sea Level Pressure 29.97 in    
Wind  
Wind Speed 10 mph (North)    
Max Wind Speed 23 mph    
Max Gust Speed 28 mph    
Averages and records for this station are not official NWS values.
T = Trace of Precipitation, MM = Missing Value Source: NWS Daily Summary

Daily Weather History Graph

Daily Weather History Graph

Search for Another Location

Airport:

Trip Planner

Search our weather history database for the weather conditions in past years. The results will help you decide how hot, cold, wet, or windy it might be!

Date:

Astronomy

Jan. 13, 2013 Rise Set
Actual Time 8:35 AM EST 5:25 PM EST
Civil Twilight 8:00 AM EST 6:00 PM EST
Nautical Twilight 7:22 AM EST 6:38 PM EST
Astronomical Twilight 6:45 AM EST 7:15 PM EST
Moon 9:21 AM EST (1/13) 8:17 PM EST (1/13)
Length of Visible Light 9h 59m
Length of Day
8h 49m
Waxing Crescent, 5% of the Moon is Illuminated
Jan 13
Waxing Crescent
Jan 18
First Quarter
Jan 26
Full
Feb 3
Last Quarter
Feb 10
New

Hourly Weather History & Observations

Time (EST) Temp. Windchill Dew Point Humidity Pressure Visibility Wind Dir Wind Speed Gust Speed Precip Events Conditions
12:51 AM 21.0 °F 11.4 °F 17.1 °F 85% 29.95 in - NW 8.1 mph - 0.01 in   Unknown
1:51 AM 19.9 °F 14.9 °F 16.0 °F 85% 29.95 in - Variable 3.5 mph - 0.01 in   Unknown
2:44 AM 21.2 °F 10.1 °F 17.6 °F 86% 29.90 in - North 10.4 mph - 0.01 in   Unknown
2:51 AM 21.9 °F 8.7 °F 19.0 °F 89% 29.95 in - North 15.0 mph - 0.01 in   Unknown
3:51 AM 21.0 °F 8.1 °F 17.1 °F 85% 29.96 in - North 13.8 mph - N/A   Unknown
4:51 AM 19.9 °F 9.3 °F 16.0 °F 85% 29.96 in - North 9.2 mph - N/A   Unknown
5:51 AM 19.9 °F 6.7 °F 16.0 °F 85% 29.94 in - North 13.8 mph - N/A   Unknown
6:51 AM 19.0 °F 10.0 °F 15.1 °F 85% 29.96 in - NNW 6.9 mph - 0.01 in   Unknown
7:51 AM 19.0 °F 9.0 °F 14.0 °F 81% 29.97 in - North 8.1 mph - N/A   Unknown
8:51 AM 19.9 °F 11.1 °F 15.1 °F 81% 29.98 in - North 6.9 mph - N/A   Unknown
9:51 AM 19.0 °F 8.2 °F 16.0 °F 88% 30.01 in - North 9.2 mph - 0.01 in   Unknown
10:51 AM 19.0 °F 11.1 °F 15.1 °F 85% 30.02 in - Variable 5.8 mph 17.3 mph 0.01 in   Unknown
11:51 AM 19.0 °F 9.0 °F 14.0 °F 81% 30.00 in - NNW 8.1 mph - 0.01 in   Unknown
12:51 PM 19.0 °F 6.1 °F 14.0 °F 81% 29.98 in - North 12.7 mph 16.1 mph 0.01 in   Unknown
1:51 PM 19.0 °F 4.0 °F 14.0 °F 81% 29.95 in - NNE 17.3 mph - N/A   Unknown
2:51 PM 19.0 °F 5.6 °F 14.0 °F 81% 29.97 in - North 13.8 mph - N/A   Unknown
3:51 PM 18.0 °F 6.1 °F 12.0 °F 78% 29.99 in - North 10.4 mph - N/A   Unknown
4:51 PM 18.0 °F 5.4 °F 14.0 °F 84% 29.99 in - NNE 11.5 mph - N/A   Unknown
5:51 PM 16.0 °F 10.4 °F 12.0 °F 84% 29.99 in - Variable 3.5 mph - 0.01 in   Unknown
6:51 PM 18.0 °F 6.9 °F 14.0 °F 84% 29.99 in - NNW 9.2 mph - N/A   Unknown
7:51 PM 18.0 °F 4.2 °F 14.0 °F 84% 29.97 in - North 13.8 mph - N/A   Unknown
8:51 PM 19.0 °F 5.6 °F 14.0 °F 81% 29.97 in - North 13.8 mph - N/A   Unknown
9:51 PM 19.0 °F 6.8 °F 16.0 °F 88% 29.99 in - North 11.5 mph 19.6 mph 0.01 in   Unknown
10:51 PM 18.0 °F 2.2 °F 15.1 °F 88% 30.00 in - North 18.4 mph 25.3 mph N/A   Unknown
11:51 PM 18.0 °F 0.6 °F 12.9 °F 81% 30.02 in - North 23.0 mph 27.6 mph N/A   Unknown